Flag for Greece Weather past 2 weeks in Athens, Greece

Now
54 °F

Passing clouds.


Feels Like: 53 °F
Forecast: 49 / 63 °F
Wind: 5 mph from North

Location: Elefsis Airport


UV Index: 0 (Low)

Visibility: N/A


Pressure: 29.77 "Hg

Humidity: 88%

Dew point: 50 °F

Location of AthensLocation

Historic Weather in Athens

°F

Athens temperature yesterday

Maximum temperature yesterday: 70 °F (at 12:20 PM)
Minimum temperature yesterday: 48 °F (at 4:50 AM)
Average temperature yesterday: 59 °F

Past Weeks' High & Low Weather Summary

 TemperatureHumidityPressure
High75 °F (Apr 9, 2:20 PM)94% (Apr 2, 3:50 AM)30.09 "Hg (Apr 2, 3:50 AM)
Low45 °F (Apr 11, 4:20 AM)21% (Apr 11, 12:50 PM)29.74 "Hg (Apr 16, 3:20 PM)
Average60 °F66%29.93 "Hg
* Reported Apr 2 2:50 AM — Apr 17 2:50 AM, Athens, Weather by CustomWeather, © 2014

Note: Actual official high and low records may vary slightly from our data, if they occured in-between our weather recording intervals... More about our weather records

Advertising

Historic Weather Conditions — Data for Previous 24 hours

 ConditionsComfort  
Time TempWeatherWind HumidityBarometerVisibility
2:50 AM
Apr 17
54 °FPartly cloudy.3 mph88%29.77 "HgN/A
2:20 AM54 °FLight rain. Partly cloudy.5 mph88%29.77 "HgN/A
1:50 AM55 °FPartly cloudy.3 mph88%29.80 "HgN/A
1:20 AM55 °FPassing clouds.No wind88%29.80 "HgN/A
12:50 AM55 °FPassing clouds.5 mph82%29.80 "HgN/A
12:20 AM55 °FPassing clouds.5 mph88%29.80 "HgN/A
11:50 PM
Apr 16
55 °FPassing clouds.3 mph88%29.80 "HgN/A
11:20 PM55 °FPassing clouds.5 mph88%29.80 "HgN/A
10:50 PM55 °FPassing clouds.5 mph88%29.80 "HgN/A
10:20 PM55 °FPassing clouds.5 mph88%29.80 "HgN/A
9:50 PM57 °FLight rain. Passing clouds.7 mph88%29.80 "HgN/A
9:20 PM59 °FPassing clouds.No wind82%29.77 "HgN/A
8:50 PM59 °FDrizzle. Partly sunny.5 mph77%29.77 "HgN/A
8:20 PM61 °FPartly sunny.3 mph72%29.77 "HgN/A
7:50 PM63 °FPartly sunny.6 mph68%29.74 "HgN/A
7:20 PM64 °FPartly sunny.9 mph64%29.74 "HgN/A
6:50 PM64 °FPartly sunny.10 mph64%29.74 "HgN/A
6:20 PM66 °FPartly sunny.10 mph56%29.74 "HgN/A
5:50 PM66 °FPartly sunny.12 mph60%29.74 "HgN/A
5:20 PM64 °FPartly sunny.12 mph64%29.74 "HgN/A
4:50 PM64 °FPartly sunny.12 mph64%29.74 "HgN/A
4:20 PM64 °FPartly sunny.14 mph60%29.74 "HgN/A
3:50 PM64 °FPartly sunny.16 mph64%29.74 "HgN/A
3:20 PM66 °FPartly sunny.16 mph60%29.74 "HgN/A
2:50 PM66 °FPartly sunny.16 mph60%29.77 "HgN/A
2:20 PM64 °FPartly sunny.13 mph64%29.77 "HgN/A
1:50 PM64 °FPartly sunny.13 mph64%29.77 "HgN/A
1:20 PM64 °FPartly sunny.13 mph60%29.77 "HgN/A
12:50 PM66 °FBroken clouds.12 mph52%29.77 "HgN/A
12:20 PM70 °FPartly sunny.15 mph46%29.80 "HgN/A
11:50 AM68 °FPartly sunny.15 mph43%29.80 "HgN/A
11:20 AM68 °FPartly sunny.12 mph46%29.80 "HgN/A
10:50 AM66 °FPartly sunny.No wind49%29.80 "HgN/A
10:20 AM63 °FPartly sunny.No wind59%29.80 "HgN/A
9:50 AM61 °FBroken clouds.No wind68%29.80 "HgN/A
9:20 AM59 °FBroken clouds.No wind68%29.80 "HgN/A
8:50 AM57 °FBroken clouds.No wind72%29.80 "HgN/A
8:20 AM54 °FBroken clouds.No wind82%29.80 "HgN/A
7:50 AM52 °FBroken clouds.No wind82%29.80 "HgN/A
7:20 AM52 °FPassing clouds.No wind82%29.80 "HgN/A
6:50 AM50 °FPassing clouds.No wind88%29.80 "HgN/A
6:20 AM50 °FPassing clouds.No wind88%29.80 "HgN/A
5:50 AM50 °FPassing clouds.No wind82%29.80 "HgN/A
5:20 AM50 °FPassing clouds.No wind82%29.80 "HgN/A
4:50 AM48 °FPassing clouds.No wind87%29.80 "HgN/A
4:20 AM50 °FPassing clouds.No wind82%29.80 "HgN/A
Weather by CustomWeather, © 2014

See weather overview